Location: *
(38.9555°S, 57.3572°E)
Time: 01:43:19
(UTC+00:00)

CZ-4B R/B - Pass Details

Date: 15 July 2020
Orbit: 808 x 882 km, 99.1° (Epoch: 06 August)

Event Time Altitude Azimuth Distance (km) Brightness Sun altitude
Rises 14:45:43 0° 172° (S) 3,518 6.2 -18.7°
Reaches altitude 10° 14:48:11 10° 176° (S) 2,569 5.5 -19.2°
Maximum altitude 14:53:43 52° 251° (WSW) 1,090 4.1 -20.2°
Drops below altitude 10° 14:59:07 10° 325° (NW) 2,507 6.3 -21.3°
Sets 15:01:31 0° 330° (NNW) 3,426 7.0 -21.7°
